owner,sensor,date,latitude,longitude,vertical_datum,mass_concentration_of_oxygen_in_sea_water,qcFlag 
DISL,ioos:station:DISL:DISL:1,2010-03-01T00:00:00Z,30.2513,-88.0778,6.061,12.09,1111122 
DISL,ioos:station:DISL:DISL:1,2010-03-01T00:30:00Z,30.2513,-88.0778,6.055,12.47,1111122 
DISL,ioos:station:DISL:DISL:1,2010-03-01T01:00:00Z,30.2513,-88.0778,6.11,12.34,1111122 
DISL,ioos:station:DISL:DISL:1,2010-03-01T01:30:00Z,30.2513,-88.0778,6.115,11.71,1111122 
DISL,ioos:station:DISL:DISL:1,2010-03-01T02:00:00Z,30.2513,-88.0778,6.138,12.07,1111122 
DISL,ioos:station:DISL:DISL:1,2010-03-01T02:30:00Z,30.2513,-88.0778,6.186,11.8,1111122 
DISL,ioos:station:DISL:DISL:1,2010-03-01T03:00:00Z,30.2513,-88.0778,6.236,12.13,1111122 
DISL,ioos:station:DISL:DISL:1,2010-03-01T03:30:00Z,30.2513,-88.0778,6.232,11.94,1111122 
DISL,ioos:station:DISL:DISL:1,2010-03-01T04:00:00Z,30.2513,-88.0778,6.264,12.12,1111122 
DISL,ioos:station:DISL:DISL:1,2010-03-01T04:30:00Z,30.2513,-88.0778,6.311,11.64,1111122 
DISL,ioos:station:DISL:DISL:1,2010-03-01T05:00:00Z,30.2513,-88.0778,6.308,11.99,1111122 
DISL,ioos:station:DISL:DISL:1,2010-03-01T05:30:00Z,30.2513,-88.0778,6.334,11.91,1111122 
DISL,ioos:station:DISL:DISL:1,2010-03-01T06:00:00Z,30.2513,-88.0778,6.278,11.73,1111122 
DISL,ioos:station:DISL:DISL:1,2010-03-01T06:30:00Z,30.2513,-88.0778,6.247,11.89,1111122 
DISL,ioos:station:DISL:DISL:1,2010-03-01T07:00:00Z,30.2513,-88.0778,6.214,11.89,1111122 
DISL,ioos:station:DISL:DISL:1,2010-03-01T07:30:00Z,30.2513,-88.0778,6.142,11.67,1111122 
DISL,ioos:station:DISL:DISL:1,2010-03-01T08:00:00Z,30.2513,-88.0778,6.086,11.59,1111122 
DISL,ioos:station:DISL:DISL:1,2010-03-01T08:30:00Z,30.2513,-88.0778,6.019,11.56,1111122 
DISL,ioos:station:DISL:DISL:1,2010-03-01T09:00:00Z,30.2513,-88.0778,5.962,11.51,1111122 
DISL,ioos:station:DISL:DISL:1,2010-03-01T09:30:00Z,30.2513,-88.0778,5.926,12.2,1111122 
DISL,ioos:station:DISL:DISL:1,2010-03-01T10:00:00Z,30.2513,-88.0778,5.874,11.51,1111122 
DISL,ioos:station:DISL:DISL:1,2010-03-01T10:30:00Z,30.2513,-88.0778,5.853,11.26,1111122 
DISL,ioos:station:DISL:DISL:1,2010-03-01T11:00:00Z,30.2513,-88.0778,5.863,11.06,1111122 
DISL,ioos:station:DISL:DISL:1,2010-03-01T11:30:00Z,30.2513,-88.0778,5.791,11.1,1111122 
DISL,ioos:station:DISL:DISL:1,2010-03-01T12:00:00Z,30.2513,-88.0778,5.763,11.2,1111122 
DISL,ioos:station:DISL:DISL:1,2010-03-01T12:30:00Z,30.2513,-88.0778,5.75,11.16,1111122 
DISL,ioos:station:DISL:DISL:1,2010-03-01T13:00:00Z,30.2513,-88.0778,5.777,11.36,1111122 
DISL,ioos:station:DISL:DISL:1,2010-03-01T13:30:00Z,30.2513,-88.0778,5.79,11.47,1111122 
DISL,ioos:station:DISL:DISL:1,2010-03-01T14:00:00Z,30.2513,-88.0778,5.726,11.37,1111122 
DISL,ioos:station:DISL:DISL:1,2010-03-01T14:30:00Z,30.2513,-88.0778,5.795,11.47,1111122 
DISL,ioos:station:DISL:DISL:1,2010-03-01T15:00:00Z,30.2513,-88.0778,5.732,11.44,1111122 
DISL,ioos:station:DISL:DISL:1,2010-03-01T15:30:00Z,30.2513,-88.0778,5.776,11.48,1111122 
DISL,ioos:station:DISL:DISL:1,2010-03-01T16:00:00Z,30.2513,-88.0778,5.824,11.45,1111122 
DISL,ioos:station:DISL:DISL:1,2010-03-01T16:30:00Z,30.2513,-88.0778,5.848,11.02,1111122 
DISL,ioos:station:DISL:DISL:1,2010-03-01T17:00:00Z,30.2513,-88.0778,5.918,10.96,1111122 
DISL,ioos:station:DISL:DISL:1,2010-03-01T17:30:00Z,30.2513,-88.0778,5.953,11.04,1111122 
DISL,ioos:station:DISL:DISL:1,2010-03-01T18:00:00Z,30.2513,-88.0778,6.032,11.08,1111122 
DISL,ioos:station:DISL:DISL:1,2010-03-01T18:30:00Z,30.2513,-88.0778,6.084,11.39,1111122 
DISL,ioos:station:DISL:DISL:1,2010-03-01T19:00:00Z,30.2513,-88.0778,6.122,11.58,1111122 
DISL,ioos:station:DISL:DISL:1,2010-03-01T19:30:00Z,30.2513,-88.0778,6.143,11.23,1111122 
DISL,ioos:station:DISL:DISL:1,2010-03-01T20:00:00Z,30.2513,-88.0778,6.133,10.98,1111122 
DISL,ioos:station:DISL:DISL:1,2010-03-01T20:30:00Z,30.2513,-88.0778,6.101,11.05,1111122 
DISL,ioos:station:DISL:DISL:1,2010-03-01T21:00:00Z,30.2513,-88.0778,6.234,10.01,1111122 
DISL,ioos:station:DISL:DISL:1,2010-03-01T21:30:00Z,30.2513,-88.0778,6.195,8.19,1111122 
DISL,ioos:station:DISL:DISL:1,2010-03-01T22:00:00Z,30.2513,-88.0778,6.286,8.5,1111122 
DISL,ioos:station:DISL:DISL:1,2010-03-01T22:30:00Z,30.2513,-88.0778,6.326,8.49,1111122 
DISL,ioos:station:DISL:DISL:1,2010-03-01T23:00:00Z,30.2513,-88.0778,6.368,8.73,1111122 
DISL,ioos:station:DISL:DISL:1,2010-03-01T23:30:00Z,30.2513,-88.0778,6.385,8.87,1111122 
DISL,ioos:station:DISL:DISL:1,2010-03-02T00:00:00Z,30.2513,-88.0778,6.671,8.63,1111122 
DISL,ioos:station:DISL:DISL:1,2010-03-02T00:30:00Z,30.2513,-88.0778,7.36,9.17,1111122 
DISL,ioos:station:DISL:DISL:1,2010-03-02T01:00:00Z,30.2513,-88.0778,6.926,9.2,1111122 
DISL,ioos:station:DISL:DISL:1,2010-03-02T01:30:00Z,30.2513,-88.0778,7.38,9.56,1111122 
DISL,ioos:station:DISL:DISL:1,2010-03-02T02:00:00Z,30.2513,-88.0778,6.653,9.73,1111122 
DISL,ioos:station:DISL:DISL:1,2010-03-02T02:30:00Z,30.2513,-88.0778,7.83,9.98,1111122 
DISL,ioos:station:DISL:DISL:1,2010-03-02T03:00:00Z,30.2513,-88.0778,6.982,9.81,1111122 
DISL,ioos:station:DISL:DISL:1,2010-03-02T03:30:00Z,30.2513,-88.0778,6.829,9.6,1111122 
DISL,ioos:station:DISL:DISL:1,2010-03-02T04:00:00Z,30.2513,-88.0778,7.12,9.48,1111122 
DISL,ioos:station:DISL:DISL:1,2010-03-02T04:30:00Z,30.2513,-88.0778,6.404,10.39,1111122 
DISL,ioos:station:DISL:DISL:1,2010-03-02T05:00:00Z,30.2513,-88.0778,6.509,10.55,1111122 
DISL,ioos:station:DISL:DISL:1,2010-03-02T05:30:00Z,30.2513,-88.0778,5.986,10.24,1111122 
DISL,ioos:station:DISL:DISL:1,2010-03-02T06:00:00Z,30.2513,-88.0778,7.07,9.75,1111122 
DISL,ioos:station:DISL:DISL:1,2010-03-02T06:30:00Z,30.2513,-88.0778,6.872,9.49,1111122 
DISL,ioos:station:DISL:DISL:1,2010-03-02T07:00:00Z,30.2513,-88.0778,6.392,9.67,1111122 
DISL,ioos:station:DISL:DISL:1,2010-03-02T07:30:00Z,30.2513,-88.0778,6.291,9.49,1111122 
DISL,ioos:station:DISL:DISL:1,2010-03-02T08:00:00Z,30.2513,-88.0778,6.235,9.37,1111122 
DISL,ioos:station:DISL:DISL:1,2010-03-02T08:30:00Z,30.2513,-88.0778,6.408,9.51,1111122 
DISL,ioos:station:DISL:DISL:1,2010-03-02T09:00:00Z,30.2513,-88.0778,6.436,9.74,1111122 
DISL,ioos:station:DISL:DISL:1,2010-03-02T09:30:00Z,30.2513,-88.0778,6.498,9.71,1111122 
DISL,ioos:station:DISL:DISL:1,2010-03-02T10:00:00Z,30.2513,-88.0778,6.54,9.76,1111122 
DISL,ioos:station:DISL:DISL:1,2010-03-02T10:30:00Z,30.2513,-88.0778,6.737,9.78,1111122 
DISL,ioos:station:DISL:DISL:1,2010-03-02T11:00:00Z,30.2513,-88.0778,6.759,9.82,1111122 
DISL,ioos:station:DISL:DISL:1,2010-03-02T11:30:00Z,30.2513,-88.0778,6.769,9.83,1111122 
DISL,ioos:station:DISL:DISL:1,2010-03-02T12:00:00Z,30.2513,-88.0778,6.698,9.82,1111122 
DISL,ioos:station:DISL:DISL:1,2010-03-02T12:30:00Z,30.2513,-88.0778,6.853,9.83,1111122 
DISL,ioos:station:DISL:DISL:1,2010-03-02T13:00:00Z,30.2513,-88.0778,6.781,9.89,1111122 
DISL,ioos:station:DISL:DISL:1,2010-03-02T13:30:00Z,30.2513,-88.0778,6.929,9.86,1111122 
DISL,ioos:station:DISL:DISL:1,2010-03-02T14:00:00Z,30.2513,-88.0778,6.645,9.89,1111122 
DISL,ioos:station:DISL:DISL:1,2010-03-02T14:30:00Z,30.2513,-88.0778,6.854,9.9,1111122 
DISL,ioos:station:DISL:DISL:1,2010-03-02T15:00:00Z,30.2513,-88.0778,6.941,9.97,1111122 
DISL,ioos:station:DISL:DISL:1,2010-03-02T15:30:00Z,30.2513,-88.0778,7.26,10.21,1111122 
DISL,ioos:station:DISL:DISL:1,2010-03-02T16:00:00Z,30.2513,-88.0778,7.09,10.06,1111122 
DISL,ioos:station:DISL:DISL:1,2010-03-02T16:30:00Z,30.2513,-88.0778,6.681,10.05,1111122 
DISL,ioos:station:DISL:DISL:1,2010-03-02T17:00:00Z,30.2513,-88.0778,6.692,10.15,1111122 
DISL,ioos:station:DISL:DISL:1,2010-03-02T17:30:00Z,30.2513,-88.0778,6.306,10.18,1111122 
DISL,ioos:station:DISL:DISL:1,2010-03-02T18:00:00Z,30.2513,-88.0778,6.941,10.25,1111122 
DISL,ioos:station:DISL:DISL:1,2010-03-02T18:30:00Z,30.2513,-88.0778,6.273,10.3,1111122 
DISL,ioos:station:DISL:DISL:1,2010-03-02T19:00:00Z,30.2513,-88.0778,6.391,10.42,1111122 
DISL,ioos:station:DISL:DISL:1,2010-03-02T19:30:00Z,30.2513,-88.0778,6.344,10.44,1111122 
DISL,ioos:station:DISL:DISL:1,2010-03-02T20:00:00Z,30.2513,-88.0778,6.318,10.48,1111122 
DISL,ioos:station:DISL:DISL:1,2010-03-02T20:30:00Z,30.2513,-88.0778,6.252,10.47,1111122 
DISL,ioos:station:DISL:DISL:1,2010-03-02T21:00:00Z,30.2513,-88.0778,6.316,10.5,1111122 
DISL,ioos:station:DISL:DISL:1,2010-03-02T21:30:00Z,30.2513,-88.0778,6.325,10.5,1111122 
DISL,ioos:station:DISL:DISL:1,2010-03-02T22:00:00Z,30.2513,-88.0778,6.046,10.49,1111122 
DISL,ioos:station:DISL:DISL:1,2010-03-02T22:30:00Z,30.2513,-88.0778,5.941,10.5,1111122 
DISL,ioos:station:DISL:DISL:1,2010-03-02T23:00:00Z,30.2513,-88.0778,5.663,10.49,1111122 
DISL,ioos:station:DISL:DISL:1,2010-03-02T23:30:00Z,30.2513,-88.0778,5.74,10.5,1111122 
DISL,ioos:station:DISL:DISL:1,2010-03-03T00:00:00Z,30.2513,-88.0778,5.813,10.48,1111122 
DISL,ioos:station:DISL:DISL:1,2010-03-03T00:30:00Z,30.2513,-88.0778,5.928,10.45,1111122 
DISL,ioos:station:DISL:DISL:1,2010-03-03T01:00:00Z,30.2513,-88.0778,5.612,10.47,1111122 
DISL,ioos:station:DISL:DISL:1,2010-03-03T01:30:00Z,30.2513,-88.0778,5.308,10.46,1111122 
DISL,ioos:station:DISL:DISL:1,2010-03-03T02:00:00Z,30.2513,-88.0778,5.565,10.43,1111122 
DISL,ioos:station:DISL:DISL:1,2010-03-03T02:30:00Z,30.2513,-88.0778,5.538,10.42,1111122 
DISL,ioos:station:DISL:DISL:1,2010-03-03T03:00:00Z,30.2513,-88.0778,5.338,10.41,1111122 
DISL,ioos:station:DISL:DISL:1,2010-03-03T03:30:00Z,30.2513,-88.0778,5.235,10.45,1111122 
DISL,ioos:station:DISL:DISL:1,2010-03-03T04:00:00Z,30.2513,-88.0778,5.327,10.42,1111122 
DISL,ioos:station:DISL:DISL:1,2010-03-03T04:30:00Z,30.2513,-88.0778,5.237,10.41,1111122 
DISL,ioos:station:DISL:DISL:1,2010-03-03T05:00:00Z,30.2513,-88.0778,5.218,10.44,1111122 
DISL,ioos:station:DISL:DISL:1,2010-03-03T05:30:00Z,30.2513,-88.0778,5.182,10.44,1111122 
DISL,ioos:station:DISL:DISL:1,2010-03-03T06:00:00Z,30.2513,-88.0778,5.221,10.45,1111122 
DISL,ioos:station:DISL:DISL:1,2010-03-03T06:30:00Z,30.2513,-88.0778,5.191,10.49,1111122 
DISL,ioos:station:DISL:DISL:1,2010-03-03T07:00:00Z,30.2513,-88.0778,5.292,10.51,1111122 
DISL,ioos:station:DISL:DISL:1,2010-03-03T07:30:00Z,30.2513,-88.0778,5.328,10.48,1111122 
DISL,ioos:station:DISL:DISL:1,2010-03-03T08:00:00Z,30.2513,-88.0778,5.327,10.44,1111122 
DISL,ioos:station:DISL:DISL:1,2010-03-03T08:30:00Z,30.2513,-88.0778,5.336,10.4,1111122 
DISL,ioos:station:DISL:DISL:1,2010-03-03T09:00:00Z,30.2513,-88.0778,5.329,10.4,1111122 
DISL,ioos:station:DISL:DISL:1,2010-03-03T09:30:00Z,30.2513,-88.0778,5.287,10.47,1111122 
DISL,ioos:station:DISL:DISL:1,2010-03-03T10:00:00Z,30.2513,-88.0778,5.31,10.51,1111122 
DISL,ioos:station:DISL:DISL:1,2010-03-03T10:30:00Z,30.2513,-88.0778,5.326,10.51,1111122 
DISL,ioos:station:DISL:DISL:1,2010-03-03T11:00:00Z,30.2513,-88.0778,5.348,10.51,1111122 
DISL,ioos:station:DISL:DISL:1,2010-03-03T11:30:00Z,30.2513,-88.0778,5.427,10.49,1111122 
DISL,ioos:station:DISL:DISL:1,2010-03-03T12:00:00Z,30.2513,-88.0778,5.39,10.55,1111122 
DISL,ioos:station:DISL:DISL:1,2010-03-03T12:30:00Z,30.2513,-88.0778,5.468,10.51,1111122 
DISL,ioos:station:DISL:DISL:1,2010-03-03T13:00:00Z,30.2513,-88.0778,5.479,10.55,1111122 
DISL,ioos:station:DISL:DISL:1,2010-03-03T13:30:00Z,30.2513,-88.0778,5.501,10.58,1111122 
DISL,ioos:station:DISL:DISL:1,2010-03-03T14:00:00Z,30.2513,-88.0778,5.588,10.6,1111122 
DISL,ioos:station:DISL:DISL:1,2010-03-03T14:30:00Z,30.2513,-88.0778,5.723,10.68,1111122 
DISL,ioos:station:DISL:DISL:1,2010-03-03T15:00:00Z,30.2513,-88.0778,5.698,10.73,1111122 
DISL,ioos:station:DISL:DISL:1,2010-03-03T15:30:00Z,30.2513,-88.0778,5.664,10.84,1111122 
DISL,ioos:station:DISL:DISL:1,2010-03-03T16:00:00Z,30.2513,-88.0778,5.736,10.93,1111122 
DISL,ioos:station:DISL:DISL:1,2010-03-03T16:30:00Z,30.2513,-88.0778,5.766,10.98,1111122 
DISL,ioos:station:DISL:DISL:1,2010-03-03T17:00:00Z,30.2513,-88.0778,5.813,11.2,1111122 
DISL,ioos:station:DISL:DISL:1,2010-03-03T17:30:00Z,30.2513,-88.0778,5.777,11.34,1111122 
DISL,ioos:station:DISL:DISL:1,2010-03-03T18:00:00Z,30.2513,-88.0778,5.768,11.51,1111122 
DISL,ioos:station:DISL:DISL:1,2010-03-03T18:30:00Z,30.2513,-88.0778,5.745,11.7,1111122 
DISL,ioos:station:DISL:DISL:1,2010-03-03T19:00:00Z,30.2513,-88.0778,5.795,11.91,1111122 
DISL,ioos:station:DISL:DISL:1,2010-03-03T19:30:00Z,30.2513,-88.0778,5.733,12.02,1111122 
DISL,ioos:station:DISL:DISL:1,2010-03-03T20:00:00Z,30.2513,-88.0778,5.708,12.05,1111122 
DISL,ioos:station:DISL:DISL:1,2010-03-03T20:30:00Z,30.2513,-88.0778,5.63,12.12,1111122 
DISL,ioos:station:DISL:DISL:1,2010-03-03T21:00:00Z,30.2513,-88.0778,5.608,12.3,1111122 
DISL,ioos:station:DISL:DISL:1,2010-03-03T21:30:00Z,30.2513,-88.0778,5.568,12.35,1111122 
DISL,ioos:station:DISL:DISL:1,2010-03-03T22:00:00Z,30.2513,-88.0778,5.49,12.33,1111122 
DISL,ioos:station:DISL:DISL:1,2010-03-03T22:30:00Z,30.2513,-88.0778,5.517,12.34,1111122 
DISL,ioos:station:DISL:DISL:1,2010-03-03T23:00:00Z,30.2513,-88.0778,5.414,12.35,1111122 
DISL,ioos:station:DISL:DISL:1,2010-03-03T23:30:00Z,30.2513,-88.0778,5.362,12.3,1111122 
DISL,ioos:station:DISL:DISL:1,2010-03-04T00:00:00Z,30.2513,-88.0778,5.275,12.2,1111122 
DISL,ioos:station:DISL:DISL:1,2010-03-04T00:30:00Z,30.2513,-88.0778,5.252,11.89,1111122 
DISL,ioos:station:DISL:DISL:1,2010-03-04T01:00:00Z,30.2513,-88.0778,5.151,12.13,1111122 
DISL,ioos:station:DISL:DISL:1,2010-03-04T01:30:00Z,30.2513,-88.0778,5.118,12.05,1111122 
DISL,ioos:station:DISL:DISL:1,2010-03-04T02:00:00Z,30.2513,-88.0778,5.081,11.62,1111122 
DISL,ioos:station:DISL:DISL:1,2010-03-04T02:30:00Z,30.2513,-88.0778,5.05,11.21,1111122 
DISL,ioos:station:DISL:DISL:1,2010-03-04T03:00:00Z,30.2513,-88.0778,5.011,11.15,1111122 
DISL,ioos:station:DISL:DISL:1,2010-03-04T03:30:00Z,30.2513,-88.0778,4.952,11.47,1111122 
DISL,ioos:station:DISL:DISL:1,2010-03-04T04:00:00Z,30.2513,-88.0778,4.897,11.5,1111122 
DISL,ioos:station:DISL:DISL:1,2010-03-04T04:30:00Z,30.2513,-88.0778,4.879,11.41,1111122 
DISL,ioos:station:DISL:DISL:1,2010-03-04T05:00:00Z,30.2513,-88.0778,4.899,11.15,1111122 
DISL,ioos:station:DISL:DISL:1,2010-03-04T05:30:00Z,30.2513,-88.0778,4.84,11.15,1111122 
DISL,ioos:station:DISL:DISL:1,2010-03-04T06:00:00Z,30.2513,-88.0778,4.879,11.0,1111122 
DISL,ioos:station:DISL:DISL:1,2010-03-04T06:30:00Z,30.2513,-88.0778,4.827,10.97,1111122 
DISL,ioos:station:DISL:DISL:1,2010-03-04T07:00:00Z,30.2513,-88.0778,4.908,11.04,1111122 
DISL,ioos:station:DISL:DISL:1,2010-03-04T07:30:00Z,30.2513,-88.0778,4.84,11.14,1111122 
DISL,ioos:station:DISL:DISL:1,2010-03-04T08:00:00Z,30.2513,-88.0778,4.849,11.02,1111122 
DISL,ioos:station:DISL:DISL:1,2010-03-04T08:30:00Z,30.2513,-88.0778,4.875,11.12,1111122 
DISL,ioos:station:DISL:DISL:1,2010-03-04T09:00:00Z,30.2513,-88.0778,4.898,11.09,1111122 
DISL,ioos:station:DISL:DISL:1,2010-03-04T09:30:00Z,30.2513,-88.0778,4.983,11.07,1111122 
DISL,ioos:station:DISL:DISL:1,2010-03-04T10:00:00Z,30.2513,-88.0778,5.049,10.91,1111122 
DISL,ioos:station:DISL:DISL:1,2010-03-04T10:30:00Z,30.2513,-88.0778,5.125,10.91,1111122 
DISL,ioos:station:DISL:DISL:1,2010-03-04T11:00:00Z,30.2513,-88.0778,5.182,10.96,1111122 
DISL,ioos:station:DISL:DISL:1,2010-03-04T11:30:00Z,30.2513,-88.0778,5.259,10.93,1111122 
DISL,ioos:station:DISL:DISL:1,2010-03-04T12:00:00Z,30.2513,-88.0778,5.299,10.88,1111122 
DISL,ioos:station:DISL:DISL:1,2010-03-04T12:30:00Z,30.2513,-88.0778,5.392,10.78,1111122 
DISL,ioos:station:DISL:DISL:1,2010-03-04T13:00:00Z,30.2513,-88.0778,5.504,10.74,1111122 
DISL,ioos:station:DISL:DISL:1,2010-03-04T13:30:00Z,30.2513,-88.0778,5.59,9.43,1111122 
DISL,ioos:station:DISL:DISL:1,2010-03-04T14:00:00Z,30.2513,-88.0778,5.674,9.08,1111122 
DISL,ioos:station:DISL:DISL:1,2010-03-04T14:30:00Z,30.2513,-88.0778,5.686,8.02,1111122 
DISL,ioos:station:DISL:DISL:1,2010-03-04T15:00:00Z,30.2513,-88.0778,5.808,7.4,1111122 
DISL,ioos:station:DISL:DISL:1,2010-03-04T15:30:00Z,30.2513,-88.0778,5.865,7.08,1111122 
DISL,ioos:station:DISL:DISL:1,2010-03-04T16:00:00Z,30.2513,-88.0778,5.769,6.71,1111122 
DISL,ioos:station:DISL:DISL:1,2010-03-04T16:30:00Z,30.2513,-88.0778,6.02,8.52,1111122 
DISL,ioos:station:DISL:DISL:1,2010-03-04T17:00:00Z,30.2513,-88.0778,6.03,9.09,1111122 
DISL,ioos:station:DISL:DISL:1,2010-03-04T17:30:00Z,30.2513,-88.0778,6.2,10.31,1111122 
DISL,ioos:station:DISL:DISL:1,2010-03-04T18:00:00Z,30.2513,-88.0778,6.056,11.24,1111122 
DISL,ioos:station:DISL:DISL:1,2010-03-04T18:30:00Z,30.2513,-88.0778,6.073,11.19,1111122 
DISL,ioos:station:DISL:DISL:1,2010-03-04T19:00:00Z,30.2513,-88.0778,6.046,11.57,1111122 
DISL,ioos:station:DISL:DISL:1,2010-03-04T19:30:00Z,30.2513,-88.0778,6.0,11.79,1111122 
DISL,ioos:station:DISL:DISL:1,2010-03-04T20:00:00Z,30.2513,-88.0778,6.012,11.87,1111122 
DISL,ioos:station:DISL:DISL:1,2010-03-04T20:30:00Z,30.2513,-88.0778,5.93,11.93,1111122 
DISL,ioos:station:DISL:DISL:1,2010-03-04T21:00:00Z,30.2513,-88.0778,5.851,12.23,1111122 
DISL,ioos:station:DISL:DISL:1,2010-03-04T21:30:00Z,30.2513,-88.0778,5.762,12.23,1111122 
DISL,ioos:station:DISL:DISL:1,2010-03-04T22:00:00Z,30.2513,-88.0778,5.725,12.2,1111122 
DISL,ioos:station:DISL:DISL:1,2010-03-04T22:30:00Z,30.2513,-88.0778,5.626,12.07,1111122 
DISL,ioos:station:DISL:DISL:1,2010-03-04T23:00:00Z,30.2513,-88.0778,5.57,12.03,1111122 
DISL,ioos:station:DISL:DISL:1,2010-03-04T23:30:00Z,30.2513,-88.0778,5.451,12.13,1111122 
DISL,ioos:station:DISL:DISL:1,2010-03-05T00:00:00Z,30.2513,-88.0778,5.376,12.09,1111122 
DISL,ioos:station:DISL:DISL:1,2010-03-05T00:30:00Z,30.2513,-88.0778,5.29,12.04,1111122 
DISL,ioos:station:DISL:DISL:1,2010-03-05T01:00:00Z,30.2513,-88.0778,5.225,11.79,1111122 
DISL,ioos:station:DISL:DISL:1,2010-03-05T01:30:00Z,30.2513,-88.0778,5.117,12.12,1111122 
DISL,ioos:station:DISL:DISL:1,2010-03-05T02:00:00Z,30.2513,-88.0778,5.062,12.09,1111122 
DISL,ioos:station:DISL:DISL:1,2010-03-05T02:30:00Z,30.2513,-88.0778,5.0,12.06,1111122 
DISL,ioos:station:DISL:DISL:1,2010-03-05T03:00:00Z,30.2513,-88.0778,4.941,11.78,1111122 
DISL,ioos:station:DISL:DISL:1,2010-03-05T03:30:00Z,30.2513,-88.0778,4.922,11.9,1111122 
DISL,ioos:station:DISL:DISL:1,2010-03-05T04:00:00Z,30.2513,-88.0778,4.791,12.02,1111122 
DISL,ioos:station:DISL:DISL:1,2010-03-05T04:30:00Z,30.2513,-88.0778,4.761,12.1,1111122 
DISL,ioos:station:DISL:DISL:1,2010-03-05T05:00:00Z,30.2513,-88.0778,4.757,12.03,1111122 
DISL,ioos:station:DISL:DISL:1,2010-03-05T05:30:00Z,30.2513,-88.0778,4.722,11.88,1111122 
DISL,ioos:station:DISL:DISL:1,2010-03-05T06:00:00Z,30.2513,-88.0778,4.69,11.84,1111122 
DISL,ioos:station:DISL:DISL:1,2010-03-05T06:30:00Z,30.2513,-88.0778,4.736,11.98,1111122 
DISL,ioos:station:DISL:DISL:1,2010-03-05T07:00:00Z,30.2513,-88.0778,4.75,12.0,1111122 
DISL,ioos:station:DISL:DISL:1,2010-03-05T07:30:00Z,30.2513,-88.0778,4.669,11.91,1111122 
DISL,ioos:station:DISL:DISL:1,2010-03-05T08:00:00Z,30.2513,-88.0778,4.728,11.56,1111122 
DISL,ioos:station:DISL:DISL:1,2010-03-05T08:30:00Z,30.2513,-88.0778,4.752,11.42,1111122 
DISL,ioos:station:DISL:DISL:1,2010-03-05T09:00:00Z,30.2513,-88.0778,4.827,11.65,1111122 
DISL,ioos:station:DISL:DISL:1,2010-03-05T09:30:00Z,30.2513,-88.0778,4.833,11.16,1111122 
DISL,ioos:station:DISL:DISL:1,2010-03-05T10:00:00Z,30.2513,-88.0778,4.886,11.62,1111122 
DISL,ioos:station:DISL:DISL:1,2010-03-05T10:30:00Z,30.2513,-88.0778,4.916,11.48,1111122 
DISL,ioos:station:DISL:DISL:1,2010-03-05T11:00:00Z,30.2513,-88.0778,4.942,11.61,1111122 
DISL,ioos:station:DISL:DISL:1,2010-03-05T11:30:00Z,30.2513,-88.0778,5.084,11.59,1111122 
DISL,ioos:station:DISL:DISL:1,2010-03-05T12:00:00Z,30.2513,-88.0778,5.133,11.33,1111122 
DISL,ioos:station:DISL:DISL:1,2010-03-05T12:30:00Z,30.2513,-88.0778,5.302,11.42,1111122 
DISL,ioos:station:DISL:DISL:1,2010-03-05T13:00:00Z,30.2513,-88.0778,5.321,11.55,1111122 
DISL,ioos:station:DISL:DISL:1,2010-03-05T13:30:00Z,30.2513,-88.0778,5.437,10.9,1111122 
DISL,ioos:station:DISL:DISL:1,2010-03-05T14:00:00Z,30.2513,-88.0778,5.511,9.33,1111122 
DISL,ioos:station:DISL:DISL:1,2010-03-05T14:30:00Z,30.2513,-88.0778,5.613,8.78,1111122 
DISL,ioos:station:DISL:DISL:1,2010-03-05T15:00:00Z,30.2513,-88.0778,5.686,8.79,1111122 
DISL,ioos:station:DISL:DISL:1,2010-03-05T15:30:00Z,30.2513,-88.0778,5.798,8.83,1111122 
DISL,ioos:station:DISL:DISL:1,2010-03-05T16:00:00Z,30.2513,-88.0778,5.902,8.86,1111122 
DISL,ioos:station:DISL:DISL:1,2010-03-05T16:30:00Z,30.2513,-88.0778,5.979,8.9,1111122 
DISL,ioos:station:DISL:DISL:1,2010-03-05T17:00:00Z,30.2513,-88.0778,6.078,9.16,1111122 
DISL,ioos:station:DISL:DISL:1,2010-03-05T17:30:00Z,30.2513,-88.0778,6.07,9.09,1111122 
DISL,ioos:station:DISL:DISL:1,2010-03-05T18:00:00Z,30.2513,-88.0778,6.146,9.2,1111122 
DISL,ioos:station:DISL:DISL:1,2010-03-05T18:30:00Z,30.2513,-88.0778,6.182,9.15,1111122 
DISL,ioos:station:DISL:DISL:1,2010-03-05T19:00:00Z,30.2513,-88.0778,6.251,10.13,1111122 
DISL,ioos:station:DISL:DISL:1,2010-03-05T19:30:00Z,30.2513,-88.0778,6.276,11.75,1111122 
DISL,ioos:station:DISL:DISL:1,2010-03-05T20:00:00Z,30.2513,-88.0778,6.288,11.98,1111122 
DISL,ioos:station:DISL:DISL:1,2010-03-05T20:30:00Z,30.2513,-88.0778,6.286,12.39,1111122 
DISL,ioos:station:DISL:DISL:1,2010-03-05T21:00:00Z,30.2513,-88.0778,6.187,12.46,1111122 
DISL,ioos:station:DISL:DISL:1,2010-03-05T21:30:00Z,30.2513,-88.0778,6.204,12.65,1111122 
DISL,ioos:station:DISL:DISL:1,2010-03-05T22:00:00Z,30.2513,-88.0778,6.086,12.69,1111122 
DISL,ioos:station:DISL:DISL:1,2010-03-05T22:30:00Z,30.2513,-88.0778,6.03,12.63,1111122 
DISL,ioos:station:DISL:DISL:1,2010-03-05T23:00:00Z,30.2513,-88.0778,5.925,12.86,1111122 
DISL,ioos:station:DISL:DISL:1,2010-03-05T23:30:00Z,30.2513,-88.0778,5.835,12.9,1111122 
DISL,ioos:station:DISL:DISL:1,2010-03-06T00:00:00Z,30.2513,-88.0778,5.728,12.71,1111122 
DISL,ioos:station:DISL:DISL:1,2010-03-06T00:30:00Z,30.2513,-88.0778,5.665,12.69,1111122 
DISL,ioos:station:DISL:DISL:1,2010-03-06T01:00:00Z,30.2513,-88.0778,5.538,12.6,1111122 
DISL,ioos:station:DISL:DISL:1,2010-03-06T01:30:00Z,30.2513,-88.0778,5.516,12.59,1111122 
DISL,ioos:station:DISL:DISL:1,2010-03-06T02:00:00Z,30.2513,-88.0778,5.413,12.72,1111122 
DISL,ioos:station:DISL:DISL:1,2010-03-06T02:30:00Z,30.2513,-88.0778,5.341,12.67,1111122 
DISL,ioos:station:DISL:DISL:1,2010-03-06T03:00:00Z,30.2513,-88.0778,5.219,12.85,1111122 
DISL,ioos:station:DISL:DISL:1,2010-03-06T03:30:00Z,30.2513,-88.0778,5.17,12.63,1111122 
DISL,ioos:station:DISL:DISL:1,2010-03-06T04:00:00Z,30.2513,-88.0778,5.018,12.5,1111122 
DISL,ioos:station:DISL:DISL:1,2010-03-06T04:30:00Z,30.2513,-88.0778,5.028,12.43,1111122 
DISL,ioos:station:DISL:DISL:1,2010-03-06T05:00:00Z,30.2513,-88.0778,4.966,12.42,1111122 
DISL,ioos:station:DISL:DISL:1,2010-03-06T05:30:00Z,30.2513,-88.0778,4.894,12.36,1111122 
DISL,ioos:station:DISL:DISL:1,2010-03-06T06:00:00Z,30.2513,-88.0778,4.838,12.39,1111122 
DISL,ioos:station:DISL:DISL:1,2010-03-06T06:30:00Z,30.2513,-88.0778,4.779,12.31,1111122 
DISL,ioos:station:DISL:DISL:1,2010-03-06T07:00:00Z,30.2513,-88.0778,4.762,12.31,1111122 
DISL,ioos:station:DISL:DISL:1,2010-03-06T07:30:00Z,30.2513,-88.0778,4.741,12.27,1111122 
DISL,ioos:station:DISL:DISL:1,2010-03-06T08:00:00Z,30.2513,-88.0778,4.763,12.25,1111122 
DISL,ioos:station:DISL:DISL:1,2010-03-06T08:30:00Z,30.2513,-88.0778,4.794,12.22,1111122 
DISL,ioos:station:DISL:DISL:1,2010-03-06T09:00:00Z,30.2513,-88.0778,4.744,12.33,1111122 
DISL,ioos:station:DISL:DISL:1,2010-03-06T09:30:00Z,30.2513,-88.0778,4.804,12.32,1111122 
DISL,ioos:station:DISL:DISL:1,2010-03-06T10:00:00Z,30.2513,-88.0778,4.882,12.2,1111122 
DISL,ioos:station:DISL:DISL:1,2010-03-06T10:30:00Z,30.2513,-88.0778,4.926,12.18,1111122 
DISL,ioos:station:DISL:DISL:1,2010-03-06T11:00:00Z,30.2513,-88.0778,4.945,11.98,1111122 
DISL,ioos:station:DISL:DISL:1,2010-03-06T11:30:00Z,30.2513,-88.0778,5.026,12.27,1111122 
DISL,ioos:station:DISL:DISL:1,2010-03-06T12:00:00Z,30.2513,-88.0778,5.03,12.33,1111122 
DISL,ioos:station:DISL:DISL:1,2010-03-06T12:30:00Z,30.2513,-88.0778,5.038,12.15,1111122 
DISL,ioos:station:DISL:DISL:1,2010-03-06T13:00:00Z,30.2513,-88.0778,5.159,12.07,1111122 
DISL,ioos:station:DISL:DISL:1,2010-03-06T13:30:00Z,30.2513,-88.0778,5.226,11.99,1111122 
DISL,ioos:station:DISL:DISL:1,2010-03-06T14:00:00Z,30.2513,-88.0778,5.314,12.03,1111122 